[[{"header":{"parameterUnit":"m.s-1","parameterCategory":1,"la1":30.2991,"la2":30.254,"lo1":-89.0895,"lo2":-89.0444,"dx":0.0017,"dy":0.0017,"nx":28,"ny":28,"refTime":"2023-01-20T09:00:00:Z","depth":0,"parameterNumber":2,"parameterNumberName":"U-component_of_WINDS"},"data":[0,0,0,0,0,0,0,0,0,0,0,0,0,0,0,0,0,0,0,0,0,0,0,0,0,0,0,0,0,0,0,0,0,0,0,0,0,0,0,0,0,0,0,0,0,0,0,0,0,0,0,0,0,0,0,0,0,0,-0.3017,-0.3016,0,-0.3006,-0.3006,-0.3006,-0.2975,-0.2974,-0.2973,-0.2973,-0.2964,-0.2964,-0.2964,0,0,0,0,0,0,0,0,0,0,0,0,0,-0.3013,-0.3013,-0.3017,-0.3016,-0.3016,-0.3006,-0.3006,-0.3005,-0.2975,-0.2974,-0.2973,-0.2973,-0.2963,-0.2964,-0.2964,0,0,0,0,0,0,0,0,0,0,0,0,0,-0.301,-0.3013,-0.3017,-0.3,-0.2998,-0.3006,-0.3006,-0.3005,-0.2975,-0.2974,-0.2973,-0.2972,-0.2963,-0.2964,-0.2964,-0.2988,0,0,-0.2966,-0.2966,0,0,0,0,0,0,0,0,-0.301,-0.301,-0.3002,-0.3001,-0.2999,-0.2991,-0.3001,-0.3,-0.2975,-0.2984,-0.2973,-0.2972,-0.2973,-0.2973,-0.2973,-0.2988,-0.2987,-0.2966,-0.2967,-0.2967,-0.2967,0,0,0,0,0,0,0,-0.301,-0.301,-0.3012,-0.3002,-0.3,-0.2993,-0.2992,-0.3001,-0.2985,-0.2983,-0.2981,-0.298,-0.2972,-0.2973,-0.2973,-0.2987,-0.2966,-0.2967,-0.2967,-0.2967,-0.3022,-0.3023,0,0,0,0,0,0,-0.3012,-0.301,-0.3013,-0.3012,-0.3002,-0.2994,-0.2993,-0.2994,-0.2984,-0.2982,-0.2981,-0.2978,-0.2972,-0.2972,-0.2973,-0.3001,-0.2967,-0.2967,-0.2968,-0.3021,-0.3022,-0.3023,0,0,0,0,0,0,-0.3013,-0.3013,-0.3013,-0.3011,-0.301,-0.2995,-0.2998,-0.2995,-0.2995,-0.2983,-0.298,-0.2984,-0.2972,-0.2972,-0.2985,-0.3,-0.2968,-0.2968,-0.3019,-0.3021,-0.3023,-0.3057,0,0,0,0,0,0,-0.3013,-0.3013,-0.3022,-0.3011,-0.301,-0.3025,-0.2999,-0.2995,-0.2996,-0.2993,-0.2985,-0.2983,-0.2971,-0.2984,-0.2985,-0.3,-0.2969,-0.3018,-0.302,-0.3022,-0.3055,-0.306,-0.3064,0,0,0,0,0,-0.3013,-0.3032,-0.3022,-0.3023,-0.302,-0.3026,-0.3026,-0.3011,-0.2997,-0.3006,-0.2998,-0.2983,-0.2998,-0.2986,-0.2987,-0.3002,-0.3017,-0.302,-0.3022,-0.3052,-0.3059,-0.3064,0,0,0,0,0,0,-0.3045,-0.303,-0.3019,-0.3035,-0.3032,-0.3021,-0.3031,-0.3018,-0.3019,-0.3016,-0.2999,-0.2997,-0.3013,-0.3008,-0.2995,-0.3025,-0.3005,-0.3008,-0.3028,-0.3034,-0.3038,-0.304,-0.2969,0,0,0,0,0,-0.3054,-0.3059,-0.3046,-0.3062,-0.306,-0.3046,-0.3048,-0.3037,-0.3033,-0.3032,-0.3025,-0.3022,-0.3026,-0.3029,-0.3032,-0.3053,-0.3052,-0.3065,-0.3069,-0.3073,-0.3077,-0.3089,-0.3095,-0.3031,-0.3031,-0.3031,0,0,-0.3073,-0.3065,-0.307,-0.3068,-0.3064,-0.3071,-0.3045,-0.3053,-0.3058,-0.3033,-0.3045,-0.304,-0.3036,-0.3053,-0.3061,-0.305,-0.3094,-0.3077,-0.308,-0.3081,-0.3092,-0.3098,-0.3103,-0.3033,-0.3033,-0.3033,0,0,-0.3111,-0.3105,-0.3118,-0.3115,-0.3109,-0.3099,-0.3102,-0.3093,-0.3089,-0.31,-0.3082,-0.3088,-0.3095,-0.3093,-0.3093,-0.3131,-0.3118,-0.3132,-0.3158,-0.317,-0.3175,-0.318,-0.3195,-0.32,-0.3135,-0.3135,-0.3135,0,-0.3135,-0.3144,-0.3127,-0.3136,-0.3136,-0.3113,-0.3127,-0.3125,-0.3121,-0.3122,-0.311,-0.3119,-0.3114,-0.3132,-0.3141,-0.3141,-0.3146,-0.3134,-0.3176,-0.318,-0.3184,-0.3198,-0.3204,-0.3137,-0.3137,-0.3137,-0.3137,0,-0.3175,-0.3181,-0.3192,-0.3189,-0.319,-0.3202,-0.3187,-0.3191,-0.318,-0.3172,-0.3185,-0.3178,-0.318,-0.3183,-0.3172,-0.32,-0.3193,-0.3179,-0.3159,-0.3192,-0.3206,-0.3211,-0.314,-0.3139,-0.3139,-0.3138,0,0,-0.3234,-0.322,-0.3225,-0.3224,-0.3216,-0.3221,-0.3231,-0.3233,-0.3237,-0.3235,-0.3245,-0.3251,-0.3238,-0.3238,-0.3227,-0.3237,-0.327,-0.3222,-0.3221,-0.3232,-0.3301,-0.3314,-0.332,-0.326,-0.3261,-0.3262,-0.3302,0,-0.3271,-0.3288,-0.3273,-0.3294,-0.33,-0.3279,-0.3288,-0.3285,-0.3278,-0.3283,-0.3275,-0.3281,-0.3262,-0.3262,-0.3271,-0.3264,-0.3284,-0.326,-0.3271,-0.3271,-0.3274,-0.3327,-0.3339,-0.3378,-0.3307,-0.3308,-0.3308,0,-0.3317,-0.3317,-0.3338,-0.333,-0.3332,-0.3341,-0.3341,-0.3346,-0.3342,-0.3336,-0.3336,-0.3323,-0.3334,-0.3312,-0.3328,-0.3313,-0.3316,-0.3313,-0.3314,-0.3316,-0.3293,-0.3332,-0.3389,-0.3396,-0.3316,-0.3315,-0.3315,0,-0.336,-0.3365,-0.3379,-0.3378,-0.3368,-0.3375,-0.3371,-0.3366,-0.3368,-0.3369,-0.3371,-0.3373,-0.3374,-0.3377,-0.3364,-0.335,-0.3382,-0.336,-0.3379,-0.338,-0.3389,-0.3389,-0.345,-0.3388,-0.3388,-0.3387,-0.3387,0,-0.3405,-0.3419,-0.3398,-0.3407,-0.3423,-0.3405,-0.3422,-0.3416,-0.3411,-0.3419,-0.34,-0.3408,-0.339,-0.3397,-0.3387,-0.3403,-0.3403,-0.34,-0.3397,-0.3403,-0.3403,-0.3406,-0.3403,-0.3389,-0.3389,-0.3388,-0.3388,0,-0.3456,-0.3443,-0.3457,-0.3446,-0.3443,-0.3456,-0.3447,-0.3455,-0.3446,-0.3457,-0.3458,-0.3445,-0.3451,-0.3439,-0.3444,-0.3437,-0.346,-0.3452,-0.3461,-0.346,-0.3481,-0.348,-0.3547,-0.3556,-0.3486,-0.3487,-0.3488,0,-0.3486,-0.3497,-0.3487,-0.3491,-0.3488,-0.3494,-0.3496,-0.3479,-0.3483,-0.3479,-0.3488,-0.3493,-0.3496,-0.3508,-0.35,-0.3504,-0.3497,-0.3521,-0.3498,-0.3503,-0.35,-0.35,-0.3502,-0.3526,-0.3527,-0.3527,-0.3528,0,-0.3542,-0.3535,-0.3538,-0.3539,-0.3542,-0.3543,-0.3542,-0.3546,-0.3528,-0.3533,-0.3539,-0.3542,-0.3547,-0.3553,-0.3555,-0.3552,-0.3538,-0.3535,-0.354,-0.3546,-0.3552,-0.3551,-0.3476,-0.3534,-0.3533,-0.3533,-0.3533,-0.3532,-0.3585,-0.3594,-0.3588,-0.3593,-0.359,-0.359,-0.3598,-0.359,-0.3594,-0.3597,-0.3587,-0.3596,-0.3593,-0.3594,-0.3593,-0.36,-0.359,-0.3597,-0.3599,-0.3602,-0.3606,-0.3549,-0.36,-0.36,-0.36,-0.36,-0.36,0,-0.3641,-0.3636,-0.364,-0.364,-0.3644,-0.3629,-0.3627,-0.3632,-0.364,-0.3638,-0.3641,-0.3649,-0.3655,-0.3647,-0.3651,-0.3659,-0.3653,-0.3661,-0.3661,-0.3661,-0.3614,-0.361,-0.3666,-0.3666,-0.3666,-0.3666,-0.3666,-0.3666,-0.367,-0.3685,-0.3677,-0.3691,-0.3686,-0.3695,-0.3695,-0.3695,-0.3694,-0.3703,-0.3708,-0.3702,-0.3698,-0.3702,-0.3707,-0.3704,-0.3708,-0.3719,-0.3714,-0.3671,-0.3664,-0.3658,-0.3654,-0.3719,-0.3719,-0.3761,-0.3762,-0.3762]},{"header":{"parameterUnit":"m.s-1","parameterCategory":1,"la1":30.2991,"la2":30.254,"lo1":-89.0895,"lo2":-89.0444,"dx":0.0017,"dy":0.0017,"nx":28,"ny":28,"refTime":"2023-01-20T09:00:00:Z","depth":0,"parameterNumber":3,"parameterNumberName":"V-component_of_WINDS"},"data":[0,0,0,0,0,0,0,0,0,0,0,0,0,0,0,0,0,0,0,0,0,0,0,0,0,0,0,0,0,0,0,0,0,0,0,0,0,0,0,0,0,0,0,0,0,0,0,0,0,0,0,0,0,0,0,0,0,0,-3.2274,-3.2274,0,-3.2352,-3.2353,-3.2353,-3.233,-3.2328,-3.2327,-3.2325,-3.2402,-3.2406,-3.2409,0,0,0,0,0,0,0,0,0,0,0,0,0,-3.2102,-3.2106,-3.2273,-3.2274,-3.2275,-3.2351,-3.2353,-3.2354,-3.233,-3.2328,-3.2326,-3.2324,-3.2401,-3.2405,-3.241,0,0,0,0,0,0,0,0,0,0,0,0,0,-3.2178,-3.2107,-3.2273,-3.2273,-3.2274,-3.2351,-3.2353,-3.2354,-3.2331,-3.2328,-3.2326,-3.2323,-3.24,-3.2405,-3.241,-3.2492,0,0,-3.2427,-3.2429,0,0,0,0,0,0,0,0,-3.2174,-3.2184,-3.2272,-3.2273,-3.2274,-3.2329,-3.2321,-3.24,-3.2331,-3.2309,-3.2325,-3.2322,-3.238,-3.2386,-3.2406,-3.2496,-3.2499,-3.2427,-3.243,-3.2433,-3.2434,0,0,0,0,0,0,0,-3.2169,-3.2181,-3.2304,-3.2273,-3.2275,-3.2268,-3.2276,-3.2336,-3.2357,-3.2311,-3.2309,-3.2319,-3.238,-3.2401,-3.2408,-3.25,-3.2427,-3.2432,-3.2435,-3.2437,-3.2662,-3.2665,0,0,0,0,0,0,-3.2163,-3.2177,-3.2302,-3.2307,-3.2217,-3.2273,-3.2282,-3.2313,-3.2356,-3.236,-3.2321,-3.2317,-3.2393,-3.2402,-3.2411,-3.2511,-3.2433,-3.2438,-3.2441,-3.2659,-3.2663,-3.2666,0,0,0,0,0,0,-3.2159,-3.2174,-3.2299,-3.2241,-3.2257,-3.2279,-3.2314,-3.2316,-3.2338,-3.2364,-3.2367,-3.2339,-3.2392,-3.2403,-3.2473,-3.2513,-3.244,-3.2445,-3.2656,-3.266,-3.2664,-3.271,0,0,0,0,0,0,-3.2155,-3.2173,-3.2205,-3.2242,-3.226,-3.236,-3.2316,-3.232,-3.2348,-3.2344,-3.2382,-3.2386,-3.2391,-3.2465,-3.2478,-3.2519,-3.2449,-3.2652,-3.2658,-3.2663,-3.2705,-3.2715,-3.2724,0,0,0,0,0,-3.2149,-3.2214,-3.2207,-3.2222,-3.23,-3.2362,-3.2372,-3.2377,-3.2351,-3.2383,-3.24,-3.2385,-3.2506,-3.2472,-3.2487,-3.253,-3.265,-3.2656,-3.2662,-3.2701,-3.2713,-3.2724,0,0,0,0,0,0,-3.2179,-3.2219,-3.2211,-3.2291,-3.2324,-3.2358,-3.2399,-3.239,-3.243,-3.2425,-3.2429,-3.2437,-3.2509,-3.2526,-3.2487,-3.2612,-3.2574,-3.2583,-3.2598,-3.261,-3.262,-3.2615,-3.2454,0,0,0,0,0,-3.2196,-3.2244,-3.2275,-3.2342,-3.2359,-3.2376,-3.2403,-3.2405,-3.2438,-3.2452,-3.2474,-3.2506,-3.2552,-3.2582,-3.2625,-3.2707,-3.2716,-3.2744,-3.2754,-3.2761,-3.277,-3.2816,-3.2829,-3.2686,-3.2686,-3.2686,0,0,-3.2229,-3.2257,-3.2287,-3.2349,-3.2375,-3.2424,-3.2388,-3.2441,-3.2478,-3.246,-3.2527,-3.2544,-3.2581,-3.2658,-3.2693,-3.2674,-3.2811,-3.2769,-3.2775,-3.2779,-3.2823,-3.2837,-3.2849,-3.269,-3.2689,-3.2689,0,0,-3.2316,-3.2341,-3.2401,-3.2428,-3.2468,-3.2479,-3.2493,-3.253,-3.2541,-3.2609,-3.2597,-3.264,-3.2718,-3.2745,-3.2769,-3.2868,-3.2856,-3.2882,-3.2931,-3.2976,-3.2988,-3.2998,-3.3034,-3.3047,-3.289,-3.289,-3.289,0,-3.2353,-3.2428,-3.2432,-3.2488,-3.2516,-3.2503,-3.2563,-3.2588,-3.264,-3.2659,-3.2638,-3.2737,-3.2761,-3.2844,-3.2869,-3.2888,-3.2905,-3.2878,-3.2986,-3.2996,-3.3005,-3.304,-3.3054,-3.2893,-3.2892,-3.2892,-3.2892,0,-3.2471,-3.2523,-3.2566,-3.2618,-3.2651,-3.2708,-3.2722,-3.2754,-3.2753,-3.2766,-3.2836,-3.2864,-3.2913,-3.2933,-3.2931,-3.3017,-3.3004,-3.2985,-3.2947,-3.3022,-3.3055,-3.3068,-3.2897,-3.2896,-3.2895,-3.2894,0,0,-3.258,-3.2635,-3.265,-3.2674,-3.2718,-3.2758,-3.2815,-3.2864,-3.2893,-3.2928,-3.2977,-3.3044,-3.3026,-3.3054,-3.3055,-3.3094,-3.3172,-3.3069,-3.307,-3.3089,-3.3269,-3.3285,-3.33,-3.3164,-3.3167,-3.3169,-3.3267,0,-3.2672,-3.2773,-3.2779,-3.2871,-3.292,-3.2908,-3.2958,-3.299,-3.3004,-3.3047,-3.3061,-3.311,-3.3082,-3.3099,-3.3137,-3.3154,-3.3209,-3.3147,-3.3209,-3.3211,-3.3202,-3.3317,-3.3334,-3.3425,-3.3279,-3.3282,-3.3283,0,-3.2792,-3.2834,-3.2931,-3.2969,-3.2989,-3.3034,-3.3081,-3.3122,-3.3158,-3.3165,-3.3197,-3.3193,-3.3251,-3.3211,-3.3291,-3.3249,-3.3275,-3.3287,-3.3291,-3.3298,-3.3253,-3.3328,-3.3454,-3.3468,-3.3303,-3.3301,-3.33,0,-3.2863,-3.2943,-3.3012,-3.3033,-3.3078,-3.311,-3.313,-3.3164,-3.3194,-3.3234,-3.3254,-3.33,-3.3325,-3.3361,-3.337,-3.3339,-3.3451,-3.3411,-3.3459,-3.3459,-3.3484,-3.3482,-3.3616,-3.3498,-3.3498,-3.3498,-3.3497,0,-3.2966,-3.3026,-3.3045,-3.3087,-3.3155,-3.3161,-3.3227,-3.3245,-3.3276,-3.3321,-3.3313,-3.3356,-3.3364,-3.3409,-3.3415,-3.3482,-3.3493,-3.3501,-3.3502,-3.3502,-3.3502,-3.352,-3.3514,-3.3501,-3.35,-3.35,-3.3499,0,-3.3057,-3.3072,-3.3147,-3.3184,-3.3195,-3.3243,-3.3275,-3.3316,-3.3329,-3.3387,-3.3401,-3.3422,-3.3474,-3.3486,-3.3547,-3.3552,-3.3631,-3.3625,-3.3619,-3.3619,-3.3667,-3.3663,-3.3819,-3.3841,-3.3707,-3.3708,-3.3709,0,-3.3122,-3.3168,-3.3211,-3.3242,-3.3264,-3.3313,-3.3344,-3.3352,-3.3385,-3.343,-3.3466,-3.3517,-3.3559,-3.3642,-3.3663,-3.371,-3.3706,-3.3757,-3.3713,-3.3712,-3.3709,-3.3706,-3.3712,-3.3766,-3.3768,-3.3769,-3.377,0,-3.3236,-3.3242,-3.3287,-3.3336,-3.3374,-3.3412,-3.3448,-3.3474,-3.3487,-3.3524,-3.3578,-3.361,-3.3674,-3.3725,-3.3773,-3.3793,-3.3784,-3.3784,-3.3798,-3.3799,-3.3794,-3.3799,-3.3644,-3.378,-3.3779,-3.3778,-3.3778,-3.3777,-3.3317,-3.3359,-3.3396,-3.3447,-3.3476,-3.3511,-3.3551,-3.3571,-3.3616,-3.367,-3.3671,-3.373,-3.3765,-3.3829,-3.3852,-3.3898,-3.3882,-3.3902,-3.3907,-3.3912,-3.3917,-3.3786,-3.3906,-3.3906,-3.3906,-3.3906,-3.3905,0,-3.3432,-3.3456,-3.3503,-3.3556,-3.3596,-3.3585,-3.3625,-3.366,-3.3712,-3.3747,-3.3788,-3.3851,-3.3901,-3.3926,-3.3975,-3.4007,-3.4005,-3.402,-3.4019,-3.4024,-3.3928,-3.3912,-3.4022,-3.4022,-3.4022,-3.4022,-3.4022,-3.4022,-3.3497,-3.3567,-3.3577,-3.3661,-3.3684,-3.3743,-3.3768,-3.38,-3.3827,-3.3898,-3.394,-3.3956,-3.3987,-3.4039,-3.4084,-3.409,-3.4109,-3.4127,-3.4131,-3.4042,-3.403,-3.4019,-3.4004,-3.4131,-3.4131,-3.4223,-3.4224,-3.4225]}]]